Date String (YYYY-MM-DD hh:mm:ss) UTC,Instrument flags,Ambient pressure (hPa),Sample flow (lpm),Bypass flow (lpm),Sample temperature (°C),Ambient temperature (°C),ASC tube jacket temperature (°C),LED temperature (°C),Box temperature (°C),Sample RH (%),Span deviation,Mass concentration (μg/m³),Mass concentration (μg/m³),Mass concentration (μg/m³)
DateTimeUTC,F1_M11,P_M11,Q1_M11,Q2_M11,T1_M11,T2_M11,T3_M11,T4_M11,T5_M11,U1_M11,ZSPAN_M11,X0_M11,X2_M11,X1_M11
2022-08-18 22:00:00,,0829.5,5.00,0.00,29.4,28.2,00.0,38.0,31.4,20.2,0000.0,0013.28,0006.35,0005.74
2022-08-18 22:01:00,,0829.5,5.00,0.00,29.4,28.4,00.0,38.1,31.4,19.0,0000.0,0013.39,0006.37,0005.75
2022-08-18 22:02:00,,0829.5,4.99,0.00,29.5,28.1,00.0,38.1,31.4,19.2,0000.0,0014.19,0006.37,0005.76
2022-08-18 22:03:00,,0829.5,5.00,0.00,29.4,27.4,00.0,38.0,31.1,19.3,0000.0,0014.17,0006.37,0005.78
2022-08-18 22:04:00,,0829.5,5.00,0.00,29.3,27.2,00.0,38.0,31.1,19.2,0000.0,0014.06,0006.43,0005.80
2022-08-18 22:05:00,,0829.4,5.01,0.00,29.3,27.2,00.0,38.0,31.1,19.4,0000.0,0014.31,0006.45,0005.81
2022-08-18 22:06:00,,0829.4,4.99,0.00,29.3,27.4,00.0,38.0,31.0,19.3,0000.0,0015.28,0006.46,0005.83
2022-08-18 22:07:00,,0829.3,5.00,0.00,29.3,27.6,00.0,38.0,31.1,19.6,0000.0,0015.33,0006.49,0005.86
2022-08-18 22:08:00,,0829.3,5.00,0.00,29.3,27.8,00.0,38.0,31.2,20.1,0000.0,0014.45,0006.52,0005.87
2022-08-18 22:09:00,,0829.3,5.01,0.00,29.3,28.0,00.0,38.0,31.3,19.5,0000.0,0014.09,0006.48,0005.87
2022-08-18 22:10:00,,0829.3,5.00,0.00,29.4,28.2,00.0,38.1,31.4,19.3,0000.0,0014.35,0006.50,0005.87
2022-08-18 22:11:00,,0829.3,5.01,0.00,29.5,28.3,00.0,38.1,31.4,19.3,0000.0,0014.77,0006.53,0005.87
2022-08-18 22:12:00,,0829.3,4.99,0.00,29.4,27.8,00.0,38.0,31.3,19.5,0000.0,0014.45,0006.51,0005.88
2022-08-18 22:13:00,,0829.3,5.00,0.00,29.4,27.3,00.0,38.0,31.1,20.7,0000.0,0014.43,0006.50,0005.87
2022-08-18 22:14:00,,0829.3,5.01,0.00,29.3,27.2,00.0,38.0,31.1,20.3,0000.0,0014.85,0006.49,0005.85
2022-08-18 22:15:00,,0829.2,4.99,0.00,29.3,27.3,00.0,38.0,31.1,19.9,0000.0,0015.36,0006.47,0005.83
2022-08-18 22:16:00,,0829.2,5.00,0.00,29.3,27.5,00.0,38.0,31.1,20.1,0000.0,0015.42,0006.49,0005.82
2022-08-18 22:17:00,,0829.2,5.01,0.00,29.3,27.7,00.0,38.0,31.1,20.0,0000.0,0015.04,0006.46,0005.80
2022-08-18 22:18:00,,0829.3,5.00,0.00,29.3,27.9,00.0,38.0,31.2,20.2,0000.0,0015.03,0006.45,0005.78
2022-08-18 22:19:00,,0829.2,5.00,0.00,29.4,28.1,00.0,38.0,31.3,20.3,0000.0,0014.66,0006.45,0005.75
2022-08-18 22:20:00,,0829.2,5.00,0.00,29.4,28.3,00.0,38.1,31.4,20.4,0000.0,0014.37,0006.46,0005.72
2022-08-18 22:21:00,,0829.3,5.00,0.00,29.5,28.2,00.0,38.1,31.4,20.7,0000.0,0014.73,0006.46,0005.71
2022-08-18 22:22:00,,0829.2,4.98,0.00,29.4,27.6,00.0,38.0,31.2,20.9,0000.0,0014.66,0006.50,0005.71
2022-08-18 22:23:00,,0829.3,5.00,0.00,29.3,27.2,00.0,38.0,31.1,20.4,0000.0,0014.49,0006.54,0005.70
2022-08-18 22:24:00,,0829.3,5.01,0.00,29.3,27.2,00.0,38.0,31.1,21.0,0000.0,0013.74,0006.57,0005.68
2022-08-18 22:25:00,,0829.3,5.00,0.00,29.2,27.4,00.0,38.0,31.0,21.1,0000.0,0013.23,0006.54,0005.67
2022-08-18 22:26:00,,0829.2,5.00,0.00,29.2,27.6,00.0,38.0,31.0,21.4,0000.0,0012.69,0006.51,0005.66
2022-08-18 22:27:00,,0829.3,5.00,0.00,29.3,27.8,00.0,38.0,31.2,21.0,0000.0,0013.40,0006.49,0005.65
2022-08-18 22:28:00,,0829.3,5.01,0.00,29.3,28.0,00.0,38.0,31.3,20.7,0000.0,0013.86,0006.51,0005.66
2022-08-18 22:29:00,,0829.3,5.01,0.00,29.4,28.2,00.0,38.0,31.4,20.6,0000.0,0014.99,0006.50,0005.65
2022-08-18 22:30:00,,0829.2,5.00,0.00,29.4,28.3,00.0,38.1,31.5,20.4,0000.0,0015.30,0006.51,0005.65
2022-08-18 22:31:00,,0829.2,5.00,0.00,29.5,28.3,00.0,38.1,31.4,19.9,0000.0,0015.15,0006.53,0005.66
2022-08-18 22:32:00,,0829.2,4.99,0.00,29.4,27.6,00.0,38.1,31.2,19.9,0000.0,0014.34,0006.55,0005.67
2022-08-18 22:33:00,,0829.3,5.00,0.00,29.3,27.2,00.0,38.0,31.1,20.1,0000.0,0013.96,0006.50,0005.64
2022-08-18 22:34:00,,0829.3,5.00,0.00,29.3,27.2,00.0,38.0,31.0,20.2,0000.0,0013.82,0006.45,0005.65
2022-08-18 22:35:00,,0829.2,5.00,0.00,29.3,27.3,00.0,38.0,31.0,20.9,0000.0,0013.69,0006.40,0005.65
2022-08-18 22:36:00,,0829.2,4.99,0.00,29.3,27.5,00.0,38.0,31.1,20.0,0000.0,0013.53,0006.37,0005.65
2022-08-18 22:37:00,,0829.3,5.00,0.00,29.3,27.7,00.0,38.0,31.2,19.7,0000.0,0013.26,0006.36,0005.67
2022-08-18 22:38:00,,0829.3,5.00,0.00,29.3,27.9,00.0,38.0,31.3,19.8,0000.0,0012.23,0006.34,0005.68
2022-08-18 22:39:00,,0829.2,5.00,0.00,29.4,28.1,00.0,38.0,31.4,20.0,0000.0,0012.24,0006.34,0005.68
2022-08-18 22:40:00,,0829.3,5.00,0.00,29.4,28.3,00.0,38.1,31.5,20.3,0000.0,0011.49,0006.33,0005.68
2022-08-18 22:41:00,,0829.3,5.00,0.00,29.5,28.3,00.0,38.1,31.5,20.4,0000.0,0011.15,0006.36,0005.69
2022-08-18 22:42:00,,0829.2,5.00,0.00,29.4,27.7,00.0,38.1,31.2,20.8,0000.0,0011.26,0006.37,0005.70
2022-08-18 22:43:00,,0829.2,5.00,0.00,29.4,27.2,00.0,38.0,31.1,21.4,0000.0,0012.52,0006.36,0005.70
2022-08-18 22:44:00,,0829.2,5.00,0.00,29.3,27.2,00.0,38.0,31.1,20.6,0000.0,0013.12,0006.36,0005.72
2022-08-18 22:45:00,,0829.2,5.01,0.00,29.3,27.3,00.0,38.0,31.1,21.2,0000.0,0013.71,0006.38,0005.72
2022-08-18 22:46:00,,0829.1,5.00,0.00,29.3,27.5,00.0,38.0,31.1,20.5,0000.0,0014.56,0006.39,0005.73
2022-08-18 22:47:00,,0829.1,5.01,0.00,29.3,27.7,00.0,38.0,31.1,20.5,0000.0,0015.07,0006.43,0005.73
2022-08-18 22:48:00,,0829.2,5.00,0.00,29.3,27.9,00.0,38.0,31.2,20.5,0000.0,0015.59,0006.46,0005.73
2022-08-18 22:49:00,,0829.2,5.00,0.00,29.4,28.1,00.0,38.1,31.4,20.5,0000.0,0016.32,0006.47,0005.72
2022-08-18 22:50:00,,0829.2,5.00,0.00,29.4,28.3,00.0,38.1,31.4,20.0,0000.0,0015.68,0006.50,0005.71
2022-08-18 22:51:00,,0829.1,5.00,0.00,29.5,28.1,00.0,38.1,31.3,19.5,0000.0,0016.10,0006.55,0005.73
2022-08-18 22:52:00,,0829.0,4.99,0.00,29.4,27.4,00.0,38.0,31.1,19.9,0000.0,0016.95,0006.54,0005.75
2022-08-18 22:53:00,,0829.1,5.00,0.00,29.3,27.2,00.0,38.0,31.1,20.2,0000.0,0017.59,0006.53,0005.76
2022-08-18 22:54:00,,0829.0,5.00,0.00,29.3,27.2,00.0,38.0,31.1,19.8,0000.0,0016.44,0006.51,0005.75
2022-08-18 22:55:00,,0829.1,5.00,0.00,29.2,27.4,00.0,38.0,31.0,19.8,0000.0,0016.65,0006.52,0005.75
2022-08-18 22:56:00,,0829.1,5.00,0.00,29.3,27.6,00.0,38.0,31.1,20.6,0000.0,0016.70,0006.49,0005.74
2022-08-18 22:57:00,,0829.1,5.00,0.00,29.3,27.8,00.0,38.0,31.2,20.3,0000.0,0015.92,0006.46,0005.74
2022-08-18 22:58:00,,0829.1,5.00,0.00,29.3,28.0,00.0,38.0,31.3,20.2,0000.0,0015.44,0006.43,0005.74
2022-08-18 22:59:00,,0829.1,5.01,0.00,29.4,28.2,00.0,38.1,31.4,20.6,0000.0,0015.16,0006.40,0005.74
